Temperature
15 15 14 14 14 14 14 14 13 13 13 13 13 12 13 13 12 12 12 12 12 12 12 12 12 12 12 12 12 12 12 11 11 12 12 12 12 12 12 12 12 12 12
14 14 14 14 13 13 13 13 13 13 13 12 12 12 12 12 12 12 12 12 12 12 12 11 12 11 11 11 11 11 11 11 11 11 11 11 11 11 11 11 11 11 11
14 13 13 13 13 13 13 13 13 13 12 12 12 12 12 12 12 12 12 12 11 11 11 11 11 11 11 11 11 11 11 11 11 11 11 11 11 11 11 11 11 11 11
13 13 13 13 12 12 12 12 12 12 12 12 12 11 11 11 11 11 11 11 11 11 11 11 11 11 11 11 11 11 11 11 11 11 11 11 11 11 10 11 11 11 11
13 13 12 12 12 12 12 12 12 12 12 11 11 11 11 11 11 11 11 11 11 11 11 11 11 10 10 10 10 10 10 10 10 10 10 10 10 10 10 10 10 10 10
12 12 12 12 12 12 11 11 11 11 11 11 11 11 11 11 11 10 10 10 10 10 10 10 10 10 10 10 10 10 10 10 10 10 10 10 10 10 10 10 10 10 10
12 12 12 11 11 11 11 11 11 11 11 10 10 10 10 10 10 10 10 10 10 10 10 10 10 10 10 10 10 10 10 9 9 9 9 9 9 10 10 9 9 9 9
12 11 11 11 11 11 10 10 10 10 10 10 10 10 10 10 10 10 9 9 9 9 9 9 9 9 9 9 9 9 9 9 9 9 9 9 9 9 9 9 9 9 9
11 11 10 10 10 10 10 10 10 10 9 9 9 9 9 9 9 9 9 9 9 9 9 9 9 9 9 9 9 9 9 9 9 9 9 9 9 9 9 9 9 8 8
10 10 10 10 9 9 9 9 9 9 9 9 9 9 9 9 9 8 8 8 8 8 8 8 8 8 8 8 8 8 8 9 9 9 9 9 9 9 8 8 8 8 8
9 9 9 9 9 9 9 9 9 8 9 9 9 8 8 8 8 8 8 8 8 8 8 8 8 8 8 8 8 8 8 8 8 8 8 8 8 8 8 8 8 8 8
9 9 8 8 8 8 8 8 8 8 8 8 8 8 8 8 7 7 7 7 7 7 7 7 7 7 7 7 7 7 7 7 7 7 7 7 7 7 7 7 7 7 7
8 8 8 8 8 7 7 7 7 7 7 7 7 7 7 7 7 7 7 7 7 7 7 7 7 7 7 7 7 7 7 7 7 6 6 7 7 7 7 7 7 7 7
8 7 7 7 7 7 7 7 7 6 6 6 6 6 6 6 6 6 6 6 6 6 6 6 6 6 6 6 6 6 6 6 6 6 6 6 6 6 6 6 6 6 6
7 7 7 6 6 6 6 6 6 6 6 6 6 6 6 6 6 6 5 5 6 6 5 5 5 5 5 5 6 5 5 5 5 5 5 5 5 5 5 5 5 5 5
7 6 6 6 6 5 5 5 5 5 5 5 5 5 5 5 5 5 5 5 5 5 5 5 5 5 5 5 5 5 5 5 5 5 5 5 5 5 5 5 5 5 5
6 6 5 5 5 5 5 5 5 5 5 5 5 4 4 4 4 4 4 4 4 4 4 4 4 4 4 4 4 4 4 4 4 4 4 4 4 4 4 4 4 4 4
5 5 5 5 4 4 4 4 4 4 4 4 4 4 4 4 4 4 4 4 4 4 4 4 4 3 4 4 4 4 4 4 4 4 4 4 4 4 4 4 4 4 4
5 5 4 4 4 4 4 4 3 3 3 3 3 3 3 3 3 3 3 3 3 3 3 3 3 3 3 3 3 3 3 3 3 3 3 3 3 3 3 3 3 3 3
4 4 4 4 3 3 3 3 3 3 3 3 3 3 3 3 3 3 3 3 3 3 3 3 3 3 3 3 3 3 3 3 3 3 3 3 3 3 3 3 3 3 3
4 4 3 3 3 3 3 2 2 2 2 2 2 2 2 2 2 2 2 2 2 2 2 2 2 2 2 2 2 2 2 2 2 2 2 2 2 2 2 2 2 3 3
3 3 3 3 2 2 2 2 2 2 2 2 2 2 2 2 2 2 2 2 2 2 2 2 2 2 2 2 2 2 2 2 2 2 2 2 2 2 2 2 2 2 2
3 3 2 2 2 2 2 2 2 2 2 1 1 1 1 1 1 1 1 1 1 1 1 1 1 1 1 1 1 1 1 1 2 2 2 2 2 2 2 2 2 2 2
2 2 2 2 2 2 1 1 1 1 1 1 1 1 1 1 1 1 1 1 1 1 1 1 1 1 1 1 1 1 1 1 1 1 1 1 1 1 1 1 1 2 2
2 2 2 2 1 1 1 1 1 1 1 1 1 0 0 0 0 0 0 0 0 0 0 0 0 1 1 1 1 1 1 1 1 1 1 1 1 1 1 1 1 1 1
2 2 1 1 1 1 1 1 0 0 0 0 0 0 0 0 -0 -0 -0 -0 -0 -0 0 0 0 0 0 0 1 1 0 0 0 0 1 1 1 1 1 1 1 1 1
Wind_Speed
1 1 1 0 1 2 2 2 2 2 2 2 2 2 2 2 2 2 2 1 1 0 0 0 2 1 1 1 1 1 1 2 3 4 3 3 3 3 3 4 6 6 6
2 2 1 0 0 1 2 2 2 2 2 2 2 2 2 2 2 2 3 2 2 2 2 1 2 1 1 2 1 2 2 2 2 3 3 2 3 3 3 3 3 4 5
2 2 1 0 0 1 2 2 2 2 2 1 1 1 2 2 3 3 3 3 3 3 3 3 3 2 2 2 2 2 2 2 2 2 3 2 2 1 1 2 2 1 3
2 2 1 1 2 2 2 1 1 2 2 2 2 2 2 2 2 3 2 2 2 2 3 3 3 3 4 4 3 3 2 2 2 2 2 2 2 1 0 1 2 2 2
1 1 2 2 1 1 1 1 1 1 2 2 2 2 2 1 2 2 3 2 2 2 3 3 4 4 4 4 3 3 3 2 2 2 2 2 2 1 2 2 2 2 2
1 1 1 0 1 1 1 1 1 2 2 2 2 2 2 2 3 3 3 2 3 3 3 4 4 4 4 5 5 4 3 3 4 3 3 4 4 4 2 2 2 1 2
0 1 1 0 1 1 2 1 2 2 2 3 3 2 3 3 4 4 4 3 3 3 4 4 4 4 3 4 5 5 5 6 5 5 5 6 5 5 3 3 3 3 4
2 2 1 1 1 2 1 2 3 2 3 3 3 3 3 4 4 4 5 4 4 4 5 5 4 5 4 3 3 3 4 4 6 5 6 7 6 5 6 5 5 3 2
1 2 2 1 2 2 2 3 3 3 3 3 3 3 3 4 5 4 4 2 3 4 4 3 4 4 5 3 2 3 3 4 5 5 5 5 6 5 3 2 2 2 2
2 2 2 1 2 3 4 4 3 2 3 3 3 3 3 4 5 5 4 2 3 3 3 3 4 5 5 3 3 3 4 4 3 2 3 4 3 3 3 4 4 3 2
2 2 2 2 3 3 3 3 2 2 2 2 3 3 3 4 5 5 4 2 3 3 3 3 4 5 5 4 4 4 5 4 3 2 2 2 2 2 2 3 4 4 4
1 2 3 3 3 3 2 3 2 2 2 2 2 3 3 4 4 4 5 4 3 3 4 3 4 5 5 5 4 4 4 2 1 1 1 2 2 3 3 3 3 4 4
2 2 3 3 4 4 3 2 2 2 2 2 2 3 3 3 4 5 5 5 4 3 3 4 4 4 4 4 4 4 3 2 2 2 3 3 3 3 2 2 1 1 1
2 3 3 3 3 3 3 2 2 2 2 3 3 3 3 3 3 3 3 3 3 2 2 3 4 4 3 4 3 3 2 2 3 3 3 3 2 2 2 2 2 2 2
2 3 3 2 2 2 3 3 3 3 4 4 3 3 3 4 5 5 3 3 3 3 2 1 2 2 2 2 2 2 2 2 2 2 3 3 3 2 3 2 2 2 3
2 2 2 2 2 2 3 4 5 5 7 6 5 5 4 5 5 5 6 5 4 2 1 1 2 2 3 3 3 3 3 3 3 3 3 3 3 3 3 2 2 3 3
2 2 2 2 2 2 3 3 5 6 6 6 6 6 5 5 5 5 5 5 4 1 1 2 3 3 3 3 3 3 3 3 3 3 3 3 3 3 3 3 3 3 3
1 2 2 2 2 3 3 4 4 4 5 4 5 5 5 5 5 4 4 2 2 1 2 2 3 3 3 3 3 3 3 2 2 2 3 3 3 3 4 4 4 4 4
2 2 2 2 2 3 3 3 3 4 4 4 4 4 4 4 3 3 1 1 2 3 3 3 3 3 3 3 3 3 3 3 3 3 3 3 3 3 4 4 4 5 4
2 3 3 2 2 3 3 3 3 4 4 3 3 4 3 2 2 2 2 2 2 3 3 3 3 3 3 3 3 3 3 3 3 3 3 3 3 4 4 4 4 4 4
1 2 4 3 3 3 3 3 4 3 3 3 4 4 4 2 2 3 2 2 3 3 3 3 3 3 3 3 3 3 4 4 3 3 3 3 3 4 4 4 4 4 4
1 2 2 3 3 3 3 3 3 3 4 4 3 3 4 2 2 3 3 3 3 3 3 3 3 3 3 3 3 3 4 4 4 4 4 4 4 4 4 3 4 4 4
2 2 2 3 3 4 4 3 3 3 3 3 3 3 3 2 2 3 3 3 3 3 3 3 3 3 3 3 4 4 4 5 5 4 4 4 4 4 3 4 4 4 5
2 2 3 3 3 3 4 4 4 4 3 3 3 3 3 3 3 3 3 3 3 3 3 3 3 4 5 4 4 5 5 6 5 5 6 5 5 4 4 4 5 5 5
2 3 3 3 3 4 4 4 4 4 4 4 4 3 3 3 3 4 3 3 3 3 3 4 4 4 6 7 6 6 7 8 7 6 5 5 5 5 5 5 4 4 4
3 3 3 3 3 4 4 4 4 4 4 4 4 4 4 4 4 4 4 3 3 4 4 4 5 6 7 7 8 8 8 8 8 8 6 4 4 5 5 4 5 4 4
Wind_Direction
147 131 113 203 194 180 183 211 216 218 213 205 224 230 220 220 205 175 197 183 163 214 301 253 256 238 218 233 195 180 185 171 236 277 274 271 242 251 249 234 235 233 241
173 150 137 212 145 187 216 224 210 211 223 218 214 217 225 227 209 192 217 217 200 211 235 241 268 252 230 230 201 207 213 203 204 263 284 279 256 243 237 238 238 238 237
165 158 155 279 262 238 239 240 222 214 222 232 216 210 225 222 209 206 207 220 221 224 223 220 246 244 241 247 228 222 229 240 213 231 263 272 271 273 280 272 258 252 245
141 152 188 241 248 251 252 251 235 215 210 225 230 222 226 221 211 208 205 206 231 244 237 230 232 236 237 234 230 229 231 235 238 245 261 270 271 270 195 261 294 286 276
139 164 228 244 252 282 287 270 266 248 230 223 228 241 248 234 229 210 205 210 223 251 258 251 248 254 265 249 238 223 219 224 233 242 255 270 266 275 248 233 238 278 280
138 215 249 287 312 297 284 284 294 298 278 253 246 247 255 267 270 234 213 214 231 239 255 263 263 252 274 277 262 237 209 211 223 228 243 244 248 240 240 230 221 227 272
71 324 302 268 295 292 296 315 302 288 285 274 259 256 259 268 264 248 232 223 230 239 247 257 273 277 274 264 262 263 255 248 230 217 229 239 238 229 216 227 222 222 237
34 358 340 335 313 302 292 273 273 270 265 265 258 251 255 276 279 268 250 237 235 237 237 237 247 261 265 268 267 265 264 264 250 235 229 238 242 228 213 214 216 225 264
357 320 313 321 313 305 291 272 263 255 257 257 252 250 253 277 289 280 269 243 244 251 250 247 248 253 264 278 274 261 274 283 288 271 265 262 264 251 210 167 180 194 255
293 289 289 298 290 282 281 281 274 254 262 266 270 264 251 261 280 287 284 244 246 258 261 259 265 266 270 265 247 240 250 263 275 307 311 314 295 269 231 202 201 209 227
284 302 302 299 292 286 288 287 283 282 286 286 282 281 272 267 277 284 288 255 236 247 259 267 269 275 274 271 264 244 250 256 250 249 268 289 297 276 251 233 215 211 216
317 321 319 317 313 315 305 305 301 288 284 293 297 299 295 284 281 288 293 289 273 244 253 259 266 284 285 282 279 275 276 284 251 256 269 270 265 266 259 241 236 227 223
329 319 316 322 325 320 310 303 307 298 277 279 282 285 293 299 294 294 293 290 284 266 261 277 289 294 291 287 281 279 271 232 217 239 250 260 257 252 247 248 259 252 264
332 315 311 314 318 324 326 317 301 283 276 278 278 279 288 296 296 293 287 286 290 287 283 291 304 308 297 281 287 283 255 227 219 233 242 254 260 255 252 240 241 248 264
343 330 325 319 312 324 327 317 304 282 268 265 263 258 265 277 283 290 294 281 267 255 280 302 307 305 306 301 293 279 258 244 242 241 244 252 251 248 251 244 235 229 234
339 328 317 317 319 318 316 320 317 301 300 284 274 271 271 271 288 295 298 303 298 286 296 260 268 267 267 272 278 283 267 248 240 236 238 235 237 238 247 248 238 232 237
317 306 306 309 310 308 307 306 311 317 317 309 295 286 282 287 294 300 302 307 303 286 252 246 251 255 260 263 264 265 264 257 246 239 237 237 236 235 234 236 236 238 239
302 301 304 291 296 298 299 297 293 297 306 310 304 290 280 279 289 296 305 319 299 281 246 250 257 260 262 261 261 265 272 273 261 254 248 244 239 235 237 237 233 231 233
294 292 290 289 292 293 296 298 301 298 296 298 306 307 298 289 289 287 279 249 258 267 262 259 255 255 261 260 263 264 264 265 262 254 252 251 246 241 240 238 234 236 235
293 299 307 305 305 305 306 304 302 299 298 297 295 295 300 298 285 281 276 259 263 274 269 261 260 260 260 260 263 264 264 260 257 255 257 256 250 241 238 238 234 234 236
295 303 315 313 300 298 299 297 294 293 293 294 289 287 291 276 267 269 270 266 264 269 275 276 271 266 260 260 262 266 265 258 249 249 254 258 256 249 241 236 236 236 240
266 286 295 291 292 294 297 295 294 293 291 289 292 300 301 284 279 281 274 273 267 264 265 266 269 268 260 254 251 254 260 258 254 251 253 255 255 252 245 241 239 234 231
263 278 292 293 293 295 300 293 290 289 286 281 284 293 292 280 283 281 279 279 277 275 275 266 269 280 283 268 256 249 250 254 253 254 255 257 258 249 241 241 240 234 228
261 270 279 285 290 289 286 287 287 287 290 290 290 292 287 281 281 281 281 285 286 284 278 270 264 266 273 277 268 257 255 259 255 248 253 254 253 253 244 241 240 232 226
260 268 271 273 279 284 286 288 288 290 291 290 287 286 282 279 278 280 282 284 284 286 281 276 268 266 267 270 271 267 268 267 267 264 249 245 246 244 240 234 232 226 224
266 268 270 273 275 279 281 284 285 286 285 288 287 282 281 280 279 282 280 276 276 278 278 275 268 269 272 273 273 275 274 270 268 268 256 240 238 237 230 228 227 220 218
Height
1523 1523 1523 1523 1523 1523 1523 1523 1522 1522 1522 1521 1521 1521 1521 1520 1520 1520 1520 1520 1520 1520 1519 1519 1519 1519 1518 1518 1518 1518 1518 1518 1517 1516 1516 1515 1515 1515 1514 1514 1514 1514 1513
1521 1521 1521 1521 1521 1520 1520 1520 1520 1519 1519 1518 1518 1518 1517 1517 1517 1517 1517 1517 1517 1516 1516 1516 1515 1515 1515 1515 1515 1515 1515 1515 1514 1513 1512 1512 1512 1512 1511 1511 1511 1511 1511
1519 1519 1518 1518 1518 1517 1517 1517 1517 1516 1516 1515 1515 1514 1514 1514 1514 1514 1514 1514 1513 1513 1513 1512 1512 1512 1512 1512 1511 1511 1511 1512 1511 1510 1509 1509 1509 1509 1508 1508 1508 1508 1508
1517 1516 1516 1515 1515 1514 1514 1513 1513 1513 1512 1512 1511 1511 1511 1511 1511 1511 1511 1510 1510 1510 1510 1509 1508 1508 1508 1508 1508 1508 1508 1508 1507 1507 1506 1505 1505 1505 1505 1504 1504 1505 1505
1514 1514 1513 1513 1512 1511 1510 1510 1510 1509 1509 1508 1508 1507 1507 1507 1507 1507 1507 1507 1506 1506 1505 1505 1505 1505 1505 1505 1505 1504 1504 1504 1503 1503 1502 1502 1501 1501 1501 1501 1501 1501 1501
1512 1511 1511 1510 1509 1508 1507 1507 1506 1506 1505 1505 1504 1504 1503 1503 1503 1503 1503 1503 1502 1501 1501 1501 1501 1501 1501 1501 1501 1501 1501 1500 1500 1499 1498 1498 1497 1498 1498 1498 1497 1497 1497
1510 1509 1508 1507 1506 1505 1504 1503 1503 1502 1502 1501 1500 1500 1499 1499 1499 1499 1499 1498 1498 1497 1497 1497 1496 1496 1496 1496 1496 1497 1497 1497 1497 1496 1495 1494 1494 1494 1494 1494 1494 1493 1493
1507 1506 1505 1504 1503 1502 1500 1499 1499 1498 1498 1497 1496 1496 1496 1495 1495 1495 1495 1494 1493 1493 1492 1492 1492 1492 1492 1492 1491 1491 1491 1491 1491 1491 1491 1491 1491 1490 1490 1490 1490 1490 1490
1504 1503 1502 1501 1500 1498 1497 1495 1494 1494 1493 1493 1492 1492 1491 1491 1491 1491 1490 1489 1488 1488 1488 1488 1488 1488 1488 1488 1487 1486 1486 1486 1486 1487 1487 1486 1486 1486 1486 1486 1486 1485 1485
1501 1500 1499 1498 1496 1495 1493 1492 1491 1490 1490 1489 1489 1488 1488 1487 1487 1486 1486 1485 1484 1483 1483 1483 1483 1483 1483 1483 1482 1481 1481 1480 1481 1481 1481 1482 1482 1482 1482 1482 1481 1481 1480
1499 1497 1496 1495 1493 1492 1490 1489 1487 1487 1486 1485 1485 1484 1484 1483 1482 1482 1481 1481 1480 1479 1478 1478 1478 1479 1478 1478 1477 1477 1476 1476 1476 1476 1475 1476 1476 1476 1477 1477 1477 1477 1476
1496 1494 1493 1492 1490 1489 1487 1485 1484 1483 1482 1481 1480 1479 1479 1479 1478 1477 1477 1476 1476 1475 1474 1473 1473 1473 1473 1473 1472 1472 1472 1472 1471 1471 1471 1470 1471 1471 1471 1472 1472 1472 1472
1493 1491 1490 1489 1487 1486 1484 1482 1481 1480 1479 1477 1476 1475 1474 1474 1474 1473 1473 1472 1471 1471 1470 1469 1469 1468 1468 1468 1467 1467 1467 1467 1466 1466 1466 1465 1466 1466 1466 1466 1466 1467 1467
1490 1488 1487 1485 1484 1482 1481 1479 1478 1477 1475 1474 1472 1471 1470 1469 1469 1468 1468 1467 1467 1466 1465 1464 1464 1463 1463 1463 1462 1462 1462 1462 1462 1462 1461 1461 1461 1461 1461 1461 1461 1461 1461
1487 1485 1484 1482 1481 1479 1478 1476 1475 1473 1472 1471 1469 1468 1466 1465 1464 1464 1463 1462 1462 1461 1460 1459 1459 1458 1458 1457 1457 1456 1456 1457 1457 1457 1457 1456 1456 1456 1456 1456 1456 1456 1456
1483 1482 1481 1479 1477 1476 1474 1472 1471 1470 1468 1467 1466 1465 1463 1462 1461 1460 1459 1459 1458 1457 1456 1455 1454 1453 1453 1453 1452 1451 1451 1451 1452 1452 1452 1451 1451 1451 1451 1451 1451 1451 1451
1481 1479 1477 1476 1474 1472 1470 1468 1466 1465 1463 1462 1461 1460 1459 1458 1457 1456 1455 1454 1454 1453 1452 1450 1450 1449 1449 1449 1448 1447 1447 1447 1447 1447 1447 1446 1446 1446 1447 1447 1446 1446 1446
1478 1476 1475 1473 1471 1469 1467 1465 1463 1460 1458 1457 1456 1455 1455 1454 1453 1452 1451 1450 1449 1448 1447 1447 1446 1446 1445 1445 1444 1444 1443 1443 1443 1442 1442 1442 1442 1442 1441 1441 1442 1441 1441
1475 1473 1471 1469 1468 1466 1464 1461 1459 1457 1455 1453 1451 1451 1450 1449 1448 1448 1447 1446 1445 1444 1443 1443 1442 1442 1441 1440 1440 1439 1439 1438 1438 1438 1437 1437 1437 1437 1437 1436 1437 1437 1437
1471 1470 1468 1466 1464 1462 1460 1458 1456 1453 1451 1449 1447 1446 1446 1445 1444 1443 1443 1442 1441 1440 1439 1438 1438 1438 1437 1436 1436 1435 1435 1434 1433 1433 1433 1433 1432 1432 1432 1432 1432 1432 1432
1468 1466 1465 1463 1461 1459 1457 1454 1452 1450 1448 1446 1444 1443 1442 1441 1440 1439 1438 1438 1437 1436 1435 1435 1434 1433 1433 1432 1432 1431 1430 1429 1429 1428 1428 1428 1427 1427 1427 1427 1427 1427 1428
1465 1463 1461 1460 1457 1455 1453 1451 1449 1447 1444 1443 1441 1440 1439 1438 1437 1436 1435 1434 1433 1432 1432 1431 1430 1429 1428 1428 1427 1426 1425 1425 1424 1424 1423 1423 1422 1422 1422 1422 1422 1422 1423
1461 1459 1458 1456 1454 1452 1450 1447 1445 1443 1441 1440 1438 1437 1436 1434 1433 1432 1431 1430 1429 1428 1427 1427 1425 1424 1424 1423 1423 1422 1421 1420 1419 1419 1418 1417 1417 1417 1417 1417 1417 1417 1418
1458 1456 1454 1452 1450 1448 1446 1444 1442 1440 1438 1436 1435 1433 1432 1431 1429 1428 1427 1426 1425 1424 1423 1422 1421 1420 1419 1418 1417 1416 1416 1415 1415 1414 1413 1412 1412 1411 1412 1412 1412 1412 1413
1454 1452 1451 1449 1447 1445 1443 1441 1438 1436 1435 1433 1431 1430 1428 1427 1426 1425 1423 1422 1421 1420 1418 1417 1416 1415 1414 1413 1412 1411 1410 1410 1409 1408 1408 1407 1406 1406 1406 1407 1407 1407 1408
1450 1448 1447 1445 1443 1441 1439 1437 1435 1433 1431 1430 1428 1426 1425 1424 1422 1421 1419 1418 1417 1415 1414 1412 1411 1410 1409 1408 1407 1406 1405 1404 1403 1403 1402 1402 1401 1401 1401 1402 1402 1403 1404